Flag for Belgium Weather past 2 weeks in Bruges, Belgium

Now
61 °F

Clear.


Feels Like: 61 °F
Forecast: 58 / 72 °F
Wind: 7 mph from Northeast

Location: Oostende Airport

Current Time: Sep 2, 2014 at 11:29:38 PM

Latest Report: Sep 2, 2014 at 10:50 PM


Visibility: 10 mi

Pressure: 30.21 "Hg

Humidity: 83%

Dew point: 55 °F

Location of BrugesLocation

Historic Weather in Bruges — Graph

°F

Bruges temperature yesterday

Maximum temperature yesterday: 68 °F (at 11:50 AM)
Minimum temperature yesterday: 46 °F (at 5:20 AM)
Average temperature yesterday: 58 °F

Past Weeks' High & Low Weather Summary

 TemperatureHumidityPressure
High70 °F (Aug 29, 2:50 PM)94% (Aug 23, 5:50 AM)30.21 "Hg (Aug 23, 5:50 AM)
Low45 °F (Aug 24, 6:20 AM)49% (Aug 19, 4:50 PM)29.56 "Hg (Aug 26, 1:50 AM)
Average58 °F78%29.97 "Hg
* Reported Aug 18 9:20 PM — Sep 2 9:50 PM, Bruges, Weather by CustomWeather, © 2014

Note: Actual official high and low records may vary slightly from our data, if they occured in-between our weather recording intervals... More about our weather records

Advertising

Bruges weather history for previous 24 hours

 ConditionsComfort  
Time TempWeatherWind HumidityBarometerVisibility
9:50 PM
Sep 2
61 °FClear.8 mph83%30.21 "Hg10 mi
9:20 PM63 °FSunny.8 mph77%30.21 "Hg10 mi
8:50 PM63 °FSunny.9 mph77%30.21 "Hg10 mi
8:20 PM64 °FSunny.9 mph73%30.21 "Hg10 mi
7:50 PM64 °FSunny.10 mph78%30.21 "Hg10 mi
7:20 PM64 °FSunny.10 mph78%30.21 "Hg10 mi
6:50 PM66 °FPassing clouds.12 mph73%30.21 "Hg5 mi
6:20 PM64 °FScattered clouds.10 mph78%30.21 "Hg6 mi
5:50 PM64 °FPartly sunny.12 mph78%30.21 "HgN/A
5:20 PM66 °FPartly sunny.10 mph73%30.21 "HgN/A
4:50 PM66 °FPartly sunny.10 mph78%30.21 "HgN/A
4:20 PM66 °FPartly sunny.12 mph73%30.21 "HgN/A
3:50 PM66 °FPartly sunny.9 mph78%30.21 "HgN/A
3:20 PM66 °FPartly sunny.9 mph78%30.21 "Hg6 mi
2:50 PM66 °FPartly sunny.9 mph83%30.21 "Hg5 mi
2:20 PM66 °FPartly sunny.8 mph78%30.21 "Hg5 mi
1:50 PM66 °FBroken clouds.7 mph78%30.21 "Hg4 mi
1:20 PM66 °FPartly sunny.5 mph78%30.21 "Hg4 mi
12:50 PM66 °FPartly sunny.5 mph73%30.21 "Hg4 mi
12:20 PM64 °FPartly sunny.3 mph78%30.21 "Hg4 mi
11:50 AM63 °FFog.5 mph83%30.21 "Hg3 mi
11:20 AM63 °FFog.6 mph83%30.21 "Hg3 mi
10:50 AM61 °FFog.8 mph88%30.21 "Hg2 mi
10:20 AM61 °FFog.8 mph88%30.18 "Hg2 mi
9:50 AM61 °FFog.8 mph88%30.18 "Hg1 mi
9:20 AM61 °FFog.6 mph88%30.18 "Hg1 mi
8:50 AM61 °FFog.5 mph88%30.18 "Hg1 mi
8:20 AM61 °FFog.2 mph88%30.15 "Hg1 mi
7:50 AM61 °FFog.3 mph88%30.15 "Hg1 mi
7:20 AM61 °FFog.5 mph88%30.15 "Hg1 mi
6:50 AM61 °FFog.3 mph88%30.15 "Hg1 mi
6:20 AM61 °FFog.3 mph88%30.12 "Hg1 mi
5:50 AM61 °FFog.2 mph88%30.12 "Hg1 mi
5:20 AM61 °FFog.3 mph88%30.12 "Hg1 mi
4:50 AM61 °FFog.3 mph88%30.12 "Hg1 mi
4:20 AM61 °FFog.3 mph88%30.12 "Hg1 mi
3:50 AM61 °FPassing clouds.3 mph88%30.12 "Hg1 mi
3:20 AM61 °FPassing clouds.3 mph88%30.12 "Hg1 mi
2:50 AM61 °FPassing clouds.5 mph83%30.15 "Hg2 mi
2:20 AM61 °FPassing clouds.5 mph83%30.12 "Hg2 mi
1:50 AM61 °FPassing clouds.6 mph83%30.15 "Hg2 mi
1:20 AM59 °FPassing clouds.5 mph88%30.15 "Hg2 mi
12:50 AM59 °FPassing clouds.6 mph88%30.15 "Hg2 mi
12:20 AM61 °FPartly cloudy.5 mph83%30.15 "Hg3 mi
11:50 PM
Sep 1
61 °FPartly cloudy.5 mph83%30.15 "Hg4 mi
11:20 PM61 °FLight rain. Partly cloudy.5 mph88%30.15 "Hg3 mi
Weather by CustomWeather, © 2014

See weather overviewHow to use our weather pages